Regional Weather Roundup
Issued by NWS

Home | Current Version | Previous Version | Text Only | Print | Product List | Glossary On
Versions: 1 2 3 4 5 6 7 8 9 10 11 12 13 14 15 16 17 18 19 20 21 22 23 24 25 26 27 28 29 30 31 32 33 34 35 36 37 38 39 40 41 42 43 44 45 46 47 48 49 50
000
ASUS45 KABQ 300610
RWRNM
NEW MEXICO REGIONAL WEATHER ROUNDUP
NATIONAL WEATHER SERVICE ALBUQUERQUE NM
1200 AM MDT SAT APR 30 2016

NOTE: "FAIR" MEANS FEW OR NO CLOUDS BELOW 12,000 FEET AGL WITH NO
       SIGNIFICANT WEATHER OR OBSTRUCTIONS TO VISION.

      THIS PRODUCT IS RELEASED AS TWO VERSIONS.  ONE VERSION NEAR
      THE TOP OF THE HOUR CONTAINING PRELIMINARY DATA FROM ALBUQUERQUE
      AND OTHER STATIONS.  A FINAL VERSION WITH ADDITIONAL DATA IS
      ISSUED ABOUT 10 MINUTES AFTER THE HOUR.

NMZ501-503-504-510>518-300700-
NORTHWEST PLATEAU/NORTHCENTRAL MOUNTAINS

CITY           SKY/WX    TMP DP  RH WIND       PRES   REMARKS
FARMINGTON     FAIR      40  30  67 W3        29.84S
6HR MIN TEMP:  40; 6HR MAX TEMP:  58;

LOS ALAMOS     FAIR      39  33  77 SW9       29.89F WCI  33
SANTA FE       FAIR      37  31  78 N3        29.88S
6HR MIN TEMP:  36; 6HR MAX TEMP:  49; 6HR PCP: TRACE;

TAOS           MOCLDY    36  28  75 CALM      29.88R
ANGEL FIRE     CLOUDY    34  29  84 S3        29.87S

$$
NMZ402-403-502-505>509-300700-
WESTCENTRAL MOUNTAINS/SOUTHWEST MOUNTAINS

CITY           SKY/WX    TMP DP  RH WIND       PRES   REMARKS
GALLUP         MOCLDY    43  36  76 W10       29.92S
6HR MIN TEMP:  41; 6HR MAX TEMP:  51; 6HR PCP:  0.01;

GRANTS         CLOUDY    38  35  90 SE7       29.94F WCI  32
SILVER CITY      N/A     45  27  49 NW13      29.94F

$$
NMZ407-409-411-412-300700-
SOUTHERN DESERTS

CITY           SKY/WX    TMP DP  RH WIND       PRES   REMARKS
LORDSBURG      FAIR      50  27  40 W7        29.90F
DEMING         FAIR      51  28  41 W3        29.90S
6HR MIN TEMP:  51; 6HR MAX TEMP:  68;

LAS CRUCES     FAIR      54  26  34 NW6       29.90S
HOLLOMAN AFB   CLOUDY    58  26  29 W6        29.86R
ALAMOGORDO     CLOUDY    59  27  29 CALM      29.88S
T OR C         FAIR      54  28  36 NW5       29.88F
6HR MIN TEMP:  54; 6HR MAX TEMP:  68;


$$
NMZ519>523-300700-
CENTRAL VALLEYS/CENTRAL HIGHLANDS

CITY           SKY/WX    TMP DP  RH WIND       PRES   REMARKS
ALBUQUERQUE    MOCLDY    48  36  63 SW13G20   29.90S
6HR MIN TEMP:  48; 6HR MAX TEMP:  56;

DOUBLE EAGLE   FAIR      42  36  80 SW13      29.90S
MORIARTY ARPT  FAIR      40  33  76 SW6       29.90F
6HR MIN TEMP:  37; 6HR MAX TEMP:  49;

CLINES CORNERS FAIR      36  31  82 W16       29.87S WCI  26
6HR MIN TEMP:  36; 6HR MAX TEMP:  43; 6HR PCP: TRACE;

BELEN          CLOUDY    44  40  85 SW7       29.91F
6HR MIN TEMP:  44; 6HR MAX TEMP:  61; 6HR PCP:  0.04;

SOCORRO        MOCLDY    49  36  60 NE12      29.91S
6HR MIN TEMP:  49; 6HR MAX TEMP:  66;


$$
NMZ524>526-539-540-300700-
SOUTHCENTRAL MOUNTAINS

CITY           SKY/WX    TMP DP  RH WIND       PRES   REMARKS
RUIDOSO          N/A     41  32  70 N5        29.95S

$$
NMZ527>531-300700-
NORTHEAST HIGHLANDS/NORTHEAST PLAINS

CITY           SKY/WX    TMP DP  RH WIND       PRES   REMARKS
LAS VEGAS      FAIR      36  30  79 VRB6      29.85S WCI  31
6HR MIN TEMP:  36; 6HR MAX TEMP:  50;

RATON          CLOUDY    35  28  75 N7        29.83F WCI  29
6HR MIN TEMP:  34; 6HR MAX TEMP:  40;

CLAYTON        CLOUDY    38  32  79 N14G22    29.82F WCI  30
6HR MIN TEMP:  38; 6HR MAX TEMP:  45;


$$
NMZ532>537-300700-
EASTCENTRAL PLAINS

CITY           SKY/WX    TMP DP  RH WIND       PRES   REMARKS
TUCUMCARI      FAIR      42  39  89 E6        29.85R
6HR MIN TEMP:  42; 6HR MAX TEMP:  57; 6HR PCP:  0.06;

CANNON AFB     MOCLDY    44  44 100 NE10      29.85R
6HR MIN TEMP:  44; 6HR MAX TEMP:  64;

CLOVIS AIRPORT CLOUDY    45  39  81 NE10      29.85S

$$
NMZ028-029-538-300700-
SOUTHEAST PLAINS

CITY           SKY/WX    TMP DP  RH WIND       PRES   REMARKS
ROSWELL        FAIR      57  27  31 N7        29.81S
6HR MIN TEMP:  57; 6HR MAX TEMP:  76;

ARTESIA        FAIR      61  27  27 W15       29.80S
CARLSBAD       FAIR      61  25  25 SW13      29.79S
6HR MIN TEMP:  59; 6HR MAX TEMP:  75;

HOBBS          FAIR      57  21  24 W10       29.81S


$$




USA.gov is the U.S. government's official web portal to all federal, state and local government web resources and services.